Weather observations for the past three days for
Vicksburg, Vicksburg / Tallulah Regional Airport
Imperial (Metric)
Date Time (cdt) Wind (mph) Vis. (mi.) Weather Sky Cond. Temperature (ºF) Relative Humidity Wind Chill (°F) Heat Index (°F) Pressure Precipitation (in)
Air Dwpt 6 hour altimeter (in) sea level (mb) 1 hr 3 hr 6 hr
Max. Min.
13 22:53 Calm 10.00 Fair CLR 69.1 66.9 93% 29.93 1014.1
13 21:53 Calm 10.00 Fair CLR 70 66.9 90% 29.93 1014.1
13 20:53 Calm 10.00 Fair CLR 72 66 82% 29.94 1014.2
13 19:53 Calm 10.00 Fair CLR 78.1 69.1 74% 80 29.93 1014.1
13 18:53 N 3 10.00 Fair CLR 84 64 90 84 51% 85 29.93 1014.1
13 17:53 N 3 10.00 Fair CLR 88 62.1 42% 88 29.93 1014.0
13 16:53 Calm 10.00 Fair CLR 90 63 41% 91 29.93 1014.1
13 15:53 Calm 10.00 Fair CLR 89.1 63 42% 90 29.94 1014.5
13 14:53 Vrbl 3 10.00 Fair CLR 89.1 63 42% 90 29.96 1015.0
13 13:53 Calm 10.00 Fair CLR 88 63 43% 89 29.97 1015.4
13 12:53 Calm 10.00 Fair CLR 87.1 62.1 88 64.9 43% 88 29.98 1015.8
13 11:53 N 7 10.00 Fair CLR 86 64 48% 87 29.99 1016.0
13 10:53 N 5 10.00 Fair CLR 84 64 51% 85 29.99 1016.2
13 09:53 Calm 10.00 Fair CLR 81 64.9 58% 83 30 1016.3
13 08:53 Calm 10.00 Fair CLR 78.1 64 62% 80 29.99 1016.2
13 07:53 Calm 10.00 Fair CLR 73 66 79% 29.98 1015.6
13 06:53 Calm 9.00 Fair CLR 64.9 63 64.9 59 93% 29.96 1015.0
13 05:53 Calm 7.00 Fair CLR 59 57.9 96% 29.94 1014.5
13 03:53 Calm 10.00 Fair CLR 62.1 60.1 93% 29.93 1014.0
13 02:53 Calm 9.00 Fair CLR 63 61 93% 29.92 1013.9
13 01:53 Calm 10.00 Fair CLR 63 61 93% 29.93 1013.9
13 00:53 Calm 10.00 Fair CLR 64 62.1 82 64 93% 29.93 1014.1
12 23:53 Calm 10.00 Fair CLR 64.9 62.1 90% 29.95 1014.8
12 22:53 Calm 10.00 Fair CLR 66 63 90% 29.96 1015.0
12 21:53 Calm 10.00 Fair CLR 66.9 64 91% 29.96 1014.9
12 20:53 Calm 10.00 Fair CLR 69.1 64 84% 29.94 1014.5
12 19:53 Calm 10.00 Fair CLR 73.9 64.9 74% 29.94 1014.4
12 18:53 N 6 10.00 Fair CLR 81 59 87.1 81 47% 81 29.94 1014.4
12 17:53 N 7 10.00 Fair CLR 84.9 59 42% 85 29.94 1014.4
12 16:53 N 6 10.00 Fair CLR 86 60.1 42% 86 29.95 1014.7
12 15:53 Vrbl 6 10.00 Fair CLR 86 59 40% 85 29.95 1014.9
12 14:53 Vrbl 3 10.00 Fair CLR 84.9 59 42% 85 29.97 1015.4
12 13:53 Vrbl 5 10.00 Fair CLR 84 59 43% 84 29.99 1016.0
12 12:53 Vrbl 6 10.00 Fair CLR 84 60.1 84.9 70 44% 84 30 1016.5
12 11:53 NE 6 10.00 Fair CLR 82.9 61 48% 83 30.02 1017.0
12 10:53 N 5 10.00 Fair CLR 82 59 46% 82 30.01 1016.9
12 09:53 Vrbl 5 10.00 Fair CLR 80.1 61 52% 81 30.01 1016.8
12 08:53 Calm 10.00 Fair CLR 75.9 61 60% 78 30.01 1016.7
12 06:53 N 3 10.00 Fair CLR 70 64 71.1 66 82% 29.99 1016.0
12 05:53 Calm 10.00 Fair CLR 66 63 90% 29.97 1015.6
12 04:53 Calm 10.00 Fair CLR 66 62.1 87% 29.96 1015.1
12 03:53 Calm 10.00 Fair CLR 68 63 84% 29.95 1014.6
12 02:53 Calm 10.00 Fair CLR 70 63 79% 29.95 1014.7
12 01:53 E 3 10.00 Fair CLR 70 64 82% 29.95 1014.6
12 00:53 Calm 9.00 Fair CLR 66.9 64 82 66.9 91% 29.96 1014.9
11 23:53 Calm 9.00 Fair CLR 68 64.9 90% 29.95 1014.9
11 22:53 Calm 10.00 Fair CLR 70 64.9 84% 29.95 1014.7
11 21:53 N 6 10.00 Fair CLR 73 64 74% 29.94 1014.3
11 20:53 N 5 10.00 Fair CLR 73.9 64 71% 29.92 1013.9
11 19:53 N 5 10.00 Fair CLR 77 64 64% 79 29.91 1013.5
11 18:53 N 8 10.00 Fair CLR 82 60.1 88 82 47% 82 29.9 1012.9
11 17:53 N 9 10.00 Fair CLR 84.9 60.1 43% 85 29.9 1012.9
11 16:53 N 10 10.00 Fair CLR 87.1 60.1 40% 87 29.9 1013.1
11 15:53 N 9 10.00 Fair CLR 87.1 61 42% 87 29.91 1013.5
11 14:53 NE 7 10.00 Fair CLR 88 63 43% 89 29.92 1013.8
11 13:53 N 10 10.00 Fair CLR 88 62.1 42% 88 29.93 1014.1
11 12:53 NE 8 10.00 Fair CLR 87.1 62.1 87.1 71.1 43% 88 29.94 1014.5
11 11:53 NE 9 10.00 Fair CLR 86 63 46% 87 29.95 1014.9
11 10:53 NE 7 10.00 Fair CLR 84 63 49% 85 29.95 1014.7
11 09:53 NE 6 10.00 Fair CLR 82 62.1 51% 83 29.95 1014.6
11 08:53 E 7 10.00 Fair CLR 79 62.1 56% 80 29.95 1014.6
11 07:53 NE 7 10.00 Fair CLR 75 61 62% 77 29.94 1014.6
11 06:53 NE 6 10.00 Fair CLR 71.1 63 71.1 68 76% 29.94 1014.5
11 05:53 NE 5 10.00 Fair CLR 69.1 64 84% 29.93 1013.9
11 04:53 NE 6 10.00 Fair CLR 70 66 87% 29.91 1013.3
11 03:53 Calm 0.50 Fog CLR 68 66 93% 29.9 1013.1
11 02:53 Calm 0.75 Fog/Mist CLR 69.1 66 90% 29.89 1012.7
11 01:53 Calm 0.25 Fog CLR 69.1 66 90% 29.89 1012.7
11 00:53 Calm 0.25 Fog CLR 70 66.9 81 70 90% 29.9 1013.0
10 23:53 Calm 0.50 Fog CLR 71.1 66.9 87% 29.9 1012.9
Date Time (cdt) Wind (mph) Vis. (mi.) Weather Sky Cond. Air Dwpt Max. Min. Relative Humidity Wind Chill (°F) Heat Index (°F) altimeter (in) sea level (mb) 1 hr 3 hr 6 hr
6 hour
Temperature (ºF) Pressure Precipitation (in)